| time (UTC) | temp F | wind direction | speed MPH | gust MPH | rain 1hr in | rain 24hr in | rain mn in | humidity % | barometer mb |
| 20260508224603 | 72 | 266 | 0.0 | 0.0 | 0.00 | 0.01 | 0.01 | 33 | 1011.9 |
| 20260508223059 | 72 | 238 | 0.0 | 0.0 | 0.00 | 0.01 | 0.01 | 34 | 1011.8 |
| 20260508221551 | 72 | 261 | 0.0 | 0.0 | 0.00 | 0.01 | 0.01 | 31 | 1011.9 |
| 20260508220049 | 73 | 262 | 0.0 | 0.0 | 0.00 | 0.01 | 0.01 | 33 | 1011.7 |
| 20260508214552 | 73 | 124 | 0.0 | 0.0 | 0.00 | 0.01 | 0.01 | 35 | 1011.7 |
| 20260508213038 | 73 | 219 | 0.0 | 0.0 | 0.00 | 0.01 | 0.01 | 34 | 1011.8 |
| 20260508211535 | 72 | 300 | 0.0 | 0.0 | 0.00 | 0.01 | 0.01 | 30 | 1012.1 |
| 20260508210030 | 72 | 240 | 0.0 | 0.0 | 0.00 | 0.01 | 0.01 | 31 | 1012.1 |
| 20260508204531 | 72 | 355 | 0.0 | 0.0 | 0.00 | 0.01 | 0.01 | 35 | 1012.3 |
| 20260508203023 | 73 | 258 | 0.0 | 0.0 | 0.00 | 0.01 | 0.01 | 31 | 1012.5 |
| 20260508201520 | 73 | 145 | 0.0 | 0.0 | 0.00 | 0.01 | 0.01 | 36 | 1012.5 |
| 20260508200014 | 72 | 161 | 0.0 | 0.0 | 0.00 | 0.01 | 0.01 | 35 | 1012.6 |
| 20260508194509 | 72 | 256 | 0.0 | 0.0 | 0.00 | 0.01 | 0.01 | 33 | 1012.8 |
| 20260508193004 | 72 | 336 | 0.0 | 0.0 | 0.00 | 0.01 | 0.01 | 38 | 1013.3 |
| 20260508191602 | 71 | 252 | 0.0 | 0.0 | 0.00 | 0.01 | 0.01 | 37 | 1013.5 |
| 20260508190056 | 71 | 146 | 0.0 | 0.0 | 0.00 | 0.01 | 0.01 | 37 | 1013.7 |
| 20260508184601 | 70 | 103 | 0.0 | 0.0 | 0.00 | 0.01 | 0.01 | 36 | 1014.0 |
| 20260508183049 | 70 | 196 | 0.0 | 0.0 | 0.00 | 0.01 | 0.01 | 39 | 1014.3 |
| 20260508181557 | 69 | 114 | 0.0 | 0.0 | 0.00 | 0.01 | 0.01 | 41 | 1014.6 |
| 20260508180041 | 69 | 98 | 0.0 | 0.0 | 0.00 | 0.01 | 0.01 | 37 | 1014.9 |
| 20260508174537 | 69 | 122 | 0.0 | 0.0 | 0.00 | 0.01 | 0.01 | 40 | 1015.2 |
| 20260508173030 | 68 | 311 | 0.0 | 0.0 | 0.00 | 0.01 | 0.01 | 43 | 1015.5 |
| 20260508171528 | 68 | 173 | 0.0 | 0.0 | 0.00 | 0.01 | 0.01 | 39 | 1015.9 |
| 20260508170021 | 69 | 171 | 0.0 | 0.0 | 0.00 | 0.01 | 0.01 | 40 | 1016.2 |
| 20260508164516 | 68 | 296 | 0.0 | 0.0 | 0.00 | 0.01 | 0.01 | 44 | 1016.4 |
| 20260508163012 | 67 | 83 | 0.0 | 0.0 | 0.00 | 0.01 | 0.01 | 42 | 1016.6 |
| 20260508161507 | 66 | 170 | 0.0 | 0.0 | 0.00 | 0.01 | 0.01 | 48 | 1016.8 |
| 20260508160009 | 66 | 126 | 0.0 | 0.0 | 0.00 | 0.01 | 0.01 | 50 | 1017.1 |
| 20260508154559 | 65 | 219 | 0.0 | 0.0 | 0.00 | 0.01 | 0.01 | 48 | 1017.3 |
| 20260508153054 | 65 | 136 | 0.0 | 0.0 | 0.00 | 0.01 | 0.01 | 48 | 1017.5 |
| 20260508151553 | 64 | 267 | 0.0 | 0.0 | 0.00 | 0.01 | 0.01 | 49 | 1017.7 |
| 20260508150045 | 63 | 192 | 0.0 | 0.0 | 0.00 | 0.01 | 0.01 | 48 | 1017.6 |
| 20260508144540 | 63 | 181 | 0.0 | 0.0 | 0.00 | 0.01 | 0.01 | 51 | 1017.8 |
| 20260508143043 | 62 | 119 | 0.0 | 0.0 | 0.00 | 0.01 | 0.01 | 53 | 1017.9 |
| 20260508141542 | 60 | 155 | 0.0 | 0.0 | 0.00 | 0.01 | 0.01 | 57 | 1018.2 |
| 20260508140027 | 59 | 247 | 0.0 | 0.0 | 0.00 | 0.01 | 0.01 | 63 | 1018.1 |
| 20260508134530 | 57 | 113 | 0.0 | 0.0 | 0.00 | 0.01 | 0.01 | 63 | 1018.1 |
| 20260508133019 | 54 | 114 | 0.0 | 0.0 | 0.00 | 0.01 | 0.01 | 45 | 1018.2 |
| 20260508131514 | 50 | 114 | 0.0 | 0.0 | 0.00 | 0.01 | 0.01 | 20 | 1018.1 |
| 20260508130010 | 47 | 140 | 0.0 | 0.0 | 0.00 | 0.01 | 0.01 | 1 | 1018.1 |
| 20260508124509 | 45 | 140 | 0.0 | 0.0 | 0.00 | 0.01 | 0.01 | 1 | 1018.1 |
| 20260508123101 | 43 | 140 | 0.0 | 0.0 | 0.00 | 0.01 | 0.01 | 1 | 1018.1 |
| 20260508121607 | 41 | 140 | 0.0 | 0.0 | 0.00 | 0.01 | 0.01 | 1 | 1017.9 |
| 20260508120052 | 39 | 140 | 0.0 | 0.0 | 0.00 | 0.01 | 0.01 | 1 | 1017.8 |
| 20260508114547 | 36 | 140 | 0.0 | 0.0 | 0.00 | 0.01 | 0.01 | 1 | 1017.7 |
| 20260508113043 | 34 | 140 | 0.0 | 0.0 | 0.00 | 0.01 | 0.01 | 1 | 1017.7 |
| 20260508111539 | 34 | 140 | 0.0 | 0.0 | 0.00 | 0.01 | 0.01 | 1 | 1017.3 |
| 20260508110047 | 34 | 140 | 0.0 | 0.0 | 0.00 | 0.01 | 0.01 | 1 | 1017.2 |
| 20260508104532 | 34 | 140 | 0.0 | 0.0 | 0.00 | 0.01 | 0.01 | 1 | 1017.1 |
| 20260508103031 | 34 | 140 | 0.0 | 0.0 | 0.00 | 0.01 | 0.01 | 1 | 1016.9 |
| 20260508101524 | 34 | 140 | 0.0 | 0.0 | 0.00 | 0.01 | 0.01 | 1 | 1016.7 |
| 20260508100021 | 34 | 140 | 0.0 | 0.0 | 0.00 | 0.01 | 0.01 | 1 | 1016.8 |
| 20260508094515 | 35 | 140 | 0.0 | 0.0 | 0.00 | 0.01 | 0.01 | 1 | 1016.9 |
| 20260508093017 | 35 | 116 | 0.0 | 0.0 | 0.00 | 0.01 | 0.01 | 1 | 1016.9 |
| 20260508091512 | 34 | 116 | 0.0 | 0.0 | 0.00 | 0.01 | 0.01 | 1 | 1016.9 |
| 20260508090004 | 35 | 117 | 0.0 | 0.0 | 0.00 | 0.01 | 0.01 | 1 | 1016.9 |
| 20260508084558 | 35 | 116 | 0.0 | 0.0 | 0.00 | 0.01 | 0.01 | 1 | 1016.9 |
| 20260508083131 | 35 | 116 | 0.0 | 0.0 | 0.00 | 0.01 | 0.01 | 1 | 1016.9 |
| 20260508081554 | 35 | 116 | 0.0 | 0.0 | 0.00 | 0.01 | 0.01 | 1 | 1016.9 |
| 20260508080055 | 35 | 116 | 0.0 | 0.0 | 0.00 | 0.01 | 0.01 | 1 | 1016.8 |
| 20260508074540 | 36 | 116 | 0.0 | 0.0 | 0.01 | 0.01 | 0.01 | 1 | 1016.7 |
| 20260508073038 | 36 | 117 | 0.0 | 0.0 | 0.01 | 0.01 | 0.01 | 1 | 1016.7 |
| 20260508071534 | 37 | 116 | 0.0 | 0.0 | 0.01 | 0.01 | 0.01 | 1 | 1016.8 |
| 20260508070027 | 37 | 116 | 0.0 | 0.0 | 0.00 | 0.00 | 0.00 | 1 | 1016.8 |
| 20260508064540 | 37 | 116 | 0.0 | 0.0 | 0.00 | 0.00 | 0.00 | 1 | 1016.9 |
| 20260508063018 | 38 | 116 | 0.0 | 0.0 | 0.00 | 0.00 | 0.00 | 1 | 1016.9 |
| 20260508061517 | 38 | 117 | 0.0 | 0.0 | 0.00 | 0.00 | 0.00 | 1 | 1017.0 |
| 20260508060010 | 39 | 117 | 0.0 | 0.0 | 0.00 | 0.00 | 0.00 | 1 | 1017.0 |
| 20260508054505 | 39 | 321 | 0.0 | 0.0 | 0.00 | 0.00 | 0.00 | 1 | 1017.1 |
| 20260508053106 | 39 | 321 | 0.0 | 0.0 | 0.00 | 0.00 | 0.00 | 1 | 1017.0 |
| 20260508051557 | 39 | 321 | 0.0 | 0.0 | 0.00 | 0.00 | 0.00 | 1 | 1017.1 |
| 20260508050056 | 39 | 321 | 0.0 | 0.0 | 0.00 | 0.00 | 0.00 | 1 | 1017.2 |
| 20260508044548 | 40 | 321 | 0.0 | 0.0 | 0.00 | 0.00 | 0.00 | 1 | 1017.1 |
| 20260508043044 | 40 | 321 | 0.0 | 0.0 | 0.00 | 0.00 | 0.00 | 1 | 1017.0 |
| 20260508041540 | 41 | 321 | 0.0 | 0.0 | 0.00 | 0.00 | 0.00 | 1 | 1016.7 |
| 20260508040037 | 41 | 321 | 0.0 | 0.0 | 0.00 | 0.00 | 0.00 | 1 | 1016.6 |
| 20260508034531 | 42 | 321 | 0.0 | 0.0 | 0.00 | 0.00 | 0.00 | 1 | 1016.4 |
| 20260508033025 | 42 | 321 | 0.0 | 0.0 | 0.00 | 0.00 | 0.00 | 12 | 1016.5 |
| 20260508031521 | 43 | 321 | 0.0 | 0.0 | 0.00 | 0.00 | 0.00 | 12 | 1016.5 |
| 20260508030017 | 43 | 321 | 0.0 | 0.0 | 0.00 | 0.00 | 0.00 | 14 | 1016.5 |
| 20260508024522 | 44 | 321 | 0.0 | 0.0 | 0.00 | 0.00 | 0.00 | 28 | 1016.5 |
| 20260508023008 | 45 | 321 | 0.0 | 0.0 | 0.00 | 0.00 | 0.00 | 38 | 1016.2 |
| 20260508021502 | 46 | 321 | 0.0 | 0.0 | 0.00 | 0.00 | 0.00 | 46 | 1016.1 |
| 20260508020059 | 47 | 321 | 0.0 | 0.0 | 0.00 | 0.00 | 0.00 | 58 | 1015.9 |
| 20260508014555 | 48 | 321 | 0.0 | 0.0 | 0.00 | 0.00 | 0.00 | 61 | 1015.5 |
| 20260508013050 | 50 | 321 | 0.0 | 0.0 | 0.00 | 0.00 | 0.00 | 64 | 1015.3 |
| 20260508011558 | 51 | 321 | 0.0 | 0.0 | 0.00 | 0.00 | 0.00 | 67 | 1015.1 |
| 20260508010052 | 53 | 321 | 0.0 | 0.0 | 0.00 | 0.00 | 0.00 | 68 | 1014.9 |
| 20260508004551 | 54 | 321 | 0.0 | 0.0 | 0.00 | 0.01 | 0.00 | 69 | 1014.7 |
| 20260508003037 | 56 | 321 | 0.0 | 0.0 | 0.00 | 0.01 | 0.00 | 64 | 1014.6 |
| 20260508001528 | 59 | 321 | 0.0 | 0.0 | 0.00 | 0.01 | 0.00 | 58 | 1014.4 |
| 20260508000023 | 62 | 311 | 0.0 | 0.0 | 0.00 | 0.01 | 0.00 | 51 | 1014.2 |
| 20260507234520 | 63 | 327 | 0.0 | 0.0 | 0.00 | 0.03 | 0.00 | 41 | 1014.1 |
| 20260507233014 | 63 | 313 | 0.0 | 0.0 | 0.00 | 0.03 | 0.00 | 42 | 1014.2 |
| 20260507231509 | 64 | 338 | 0.0 | 0.0 | 0.00 | 0.03 | 0.00 | 42 | 1014.1 |
| 20260507230006 | 64 | 279 | 0.0 | 0.0 | 0.00 | 0.03 | 0.00 | 43 | 1014.1 |